Location: Beneden-Haastrecht
(52.0012°N, 4.7557°E)
Time: 12:00:44
(UTC+00:00)

Cosmos 1346 Rocket - Pass Details

Date: 24 October 2020
Orbit: 535 x 543 km, 81.2° (Epoch: 25 November)

Event Time Altitude Azimuth Distance (km) Brightness Sun altitude
Rises 18:05:39 0° 351° (N) 2,716 6.5 -15.7°
Reaches altitude 10° 18:07:54 10° 358° (N) 1,820 5.5 -16.1°
Maximum altitude 18:11:45 44° 71° (ENE) 766 3.1 -16.7°
Enters shadow 18:13:00 33° 117° (ESE) 936 3.5 -16.9°
